Tracking 29091 objects as of 17-Jul-2024
HD Live streaming from Space Station
objects crossing your sky now

ATLAS 5 CENTAUR DEB

Track ATLAS 5 CENTAUR DEB now!


NORAD ID: 44691
Int'l Code: 2018-079BD
Perigee: 9,455.2 km
Apogee: 35,582.3 km
Inclination: 11.7 °
Period: 814.5 minutes
Semi major axis: 28889 km
RCS: Unknown
Launch date: October 17, 2018
Source: United States (US)
Launch site: AIR FORCE EASTERN TEST RANGE (AFETR)

Note: This is SATELLITE DEBRIS
Your satellite tracking list
Your tracking list is empty




NASA's NSSDC Master Catalog

Two Line Element Set (TLE):
1 44691U 18079BD  24198.12949725 -.00000079  00000-0  00000+0 0  9998
2 44691  11.7114 110.2617 4521861 161.8193 221.7177  1.76802123 31781
Source of the keplerian elements: AFSPC